Flag for Pakistan Weather past 2 weeks in Karachi, Pakistan

Now
84 °F

Partly sunny.


Feels Like: 90 °F
Forecast: 80 / 87 °F
Wind: 16 mph from Southwest

Location: Karachi Airport

Current Time: Sep 23, 2014 at 9:47:13 AM

Latest Report: Sep 23, 2014 at 8:55 AM


Visibility: 4 mi

Pressure: 29.80 "Hg

Humidity: 66%

Dew point: 72 °F

Location of KarachiLocation

Historic Weather in Karachi — Graph

°F

Karachi temperature yesterday

Maximum temperature yesterday: 90 °F (at 10:55 AM)
Minimum temperature yesterday: 81 °F (at 4:25 AM)
Average temperature yesterday: 84 °F

Past Weeks' High & Low Weather Summary

 TemperatureHumidityPressure
High95 °F (Sep 8, 12:25 PM)84% (Sep 14, 2:55 AM)29.83 "Hg (Sep 14, 2:55 AM)
Low81 °F (Sep 9, 5:55 AM)44% (Sep 17, 12:55 PM)29.59 "Hg (Sep 10, 4:25 PM)
Average84 °F65%29.71 "Hg
* Reported Sep 8 8:25 AM — Sep 23 8:25 AM, Karachi, Weather by CustomWeather, © 2014

Note: Actual official high and low records may vary slightly from our data, if they occured in-between our weather recording intervals... More about our weather records

Advertising

Karachi weather history for previous 24 hours

 ConditionsComfort  
Time TempWeatherWind HumidityBarometerVisibility
8:25 AM
Sep 23
82 °FPartly sunny.16 mph70%29.80 "Hg4 mi
7:55 AM82 °FScattered clouds.17 mph70%29.80 "Hg4 mi
7:25 AM81 °FScattered clouds.16 mph74%29.77 "Hg4 mi
6:55 AM81 °FScattered clouds.9 mph79%29.77 "Hg4 mi
6:25 AM81 °FScattered clouds.8 mph74%29.77 "Hg4 mi
5:55 AM81 °FPassing clouds.9 mph74%29.77 "Hg4 mi
4:55 AM81 °FPassing clouds.10 mph74%29.77 "Hg4 mi
4:25 AM81 °FPassing clouds.9 mph74%29.77 "Hg4 mi
3:55 AM81 °FPassing clouds.5 mph74%29.77 "Hg4 mi
3:25 AM81 °FPassing clouds.13 mph74%29.77 "Hg4 mi
2:55 AM81 °FPassing clouds.12 mph79%29.77 "Hg4 mi
2:25 AM81 °FPassing clouds.10 mph74%29.77 "Hg4 mi
1:55 AM81 °FPassing clouds.9 mph79%29.77 "Hg4 mi
1:25 AM81 °FPassing clouds.9 mph74%29.80 "Hg4 mi
12:55 AM81 °FPassing clouds.10 mph74%29.80 "Hg4 mi
12:25 AM81 °FPassing clouds.9 mph74%29.80 "Hg4 mi
11:55 PM
Sep 22
81 °FPassing clouds.9 mph74%29.80 "Hg4 mi
11:25 PM81 °FPassing clouds.9 mph74%29.80 "Hg4 mi
10:55 PM81 °FPassing clouds.13 mph74%29.80 "Hg4 mi
10:25 PM82 °FPassing clouds.9 mph70%29.83 "Hg4 mi
9:55 PM82 °FPassing clouds.12 mph70%29.83 "Hg4 mi
9:25 PM82 °FPassing clouds.9 mph70%29.80 "Hg4 mi
8:55 PM82 °FPassing clouds.14 mph74%29.80 "Hg4 mi
8:25 PM82 °FPassing clouds.12 mph70%29.80 "Hg4 mi
7:55 PM84 °FPassing clouds.12 mph66%29.77 "Hg4 mi
7:25 PM86 °FPassing clouds.13 mph59%29.77 "Hg4 mi
6:55 PM84 °FPassing clouds.12 mph62%29.77 "Hg4 mi
6:25 PM84 °FPassing clouds.N/A62%29.74 "Hg4 mi
5:55 PM86 °FPassing clouds.N/A55%29.74 "Hg4 mi
5:25 PM86 °FScattered clouds.15 mph55%29.74 "Hg4 mi
4:55 PM88 °FScattered clouds.16 mph52%29.74 "Hg4 mi
4:25 PM88 °FScattered clouds.16 mph55%29.74 "Hg4 mi
3:55 PM88 °FScattered clouds.16 mph55%29.74 "Hg4 mi
3:25 PM88 °FScattered clouds.15 mph55%29.74 "Hg4 mi
2:55 PM88 °FScattered clouds.17 mph55%29.74 "Hg4 mi
2:25 PM88 °FScattered clouds.20 mph55%29.74 "Hg4 mi
1:55 PM90 °FScattered clouds.18 mph46%29.77 "Hg5 mi
1:25 PM90 °FScattered clouds.17 mph49%29.77 "Hg5 mi
12:55 PM90 °FScattered clouds.16 mph46%29.77 "Hg5 mi
12:25 PM90 °FScattered clouds.15 mph46%29.80 "Hg5 mi
11:55 AM90 °FScattered clouds.14 mph49%29.80 "Hg4 mi
11:25 AM90 °FScattered clouds.12 mph49%29.80 "Hg4 mi
10:55 AM90 °FScattered clouds.15 mph49%29.83 "Hg4 mi
10:25 AM88 °FScattered clouds.13 mph52%29.83 "Hg4 mi
9:55 AM86 °FScattered clouds.10 mph59%29.83 "Hg4 mi
9:25 AM86 °FScattered clouds.12 mph59%29.83 "Hg4 mi
Weather by CustomWeather, © 2014

See weather overviewHow to use our weather pages